カタログに戻る

ORSTED

運用中科学PO
NORAD 25635·PAYLOAD·🇩🇰 Denmark

打ち上げ Feb 23, 1999 から Vandenberg Space Force Base

Loading…

次のパス (今後24時間)

TLE

最新Source: Space-Track

元期: Sep 14, 2026, 15:20 UTC

1 25635U 99008B   26257.63891931  .00000329  00000-0  80858-4 0  9996
2 25635  96.4702 144.7900 0129947 259.6264  99.0268 14.51886664454941

AllMySatでORSTEDをリアルタイム追跡

Download on the App Store